This demonstration page uses our WeatherBlox Daily Observations layout. Learn more.

Left ArrowRight Arrow

39.92423, -83.80882

Hourly Observations for March 21, 2020

Temp ( °F °C ) Dew Point ( °F °C ) Humidity (%) Winds ( mph kmh ) Pressure ( in mb ) Visibility ( mi km ) Precip ( " mm )
12:56 am 00:56 Cloudy 36 2.2 32 0 86 86 N 14 22 30.36 1028 10 16.0934 0.96 24.384
1:56 am 01:56 Cloudy 34 1.1 30 -1.1 85 85 N 12 19 30.37 1029 10 16.0934 1.68 42.672
2:56 am 02:56 Cloudy 33 0.6 28 -2.2 82 82 N 14 22 30.38 1029 10 16.0934 0.86 21.844
3:56 am 03:56 Cloudy 32 0 28 -2.2 85 85 N 14 22 30.38 1029 10 16.0934 0.3 7.62
4:56 am 04:56 Cloudy 32 0 27 -2.8 82 82 NNE 9 15 30.39 1029 10 16.0934 0.89 22.606
5:56 am 05:56 Cloudy 31 -0.6 27 -2.8 85 85 NNE 13 20 30.42 1030 10 16.0934 0.72 18.288
6:56 am 06:56 Cloudy 31 -0.6 26 -3.3 82 82 NNE 15 24 30.44 1031 10 16.0934 0.32 8.128
7:56 am 07:56 Cloudy 31 -0.6 26 -3.3 82 82 NNE 12 19 30.46 1032 10 16.0934 0.14 3.556
8:56 am 08:56 Cloudy 31 -0.6 25 -3.9 79 79 NE 15 24 30.48 1032 10 16.0934 0.64 16.256
9:56 am 09:56 Cloudy 31 -0.6 26 -3.3 82 82 NNE 14 22 30.49 1032 10 16.0934 1.02 25.908
10:56 am 10:56 Cloudy 31 -0.6 25 -3.9 79 79 NE 14 22 30.5 1033 10 16.0934 0 0
11:56 am 11:56 Cloudy 32 0 26 -3.3 79 79 NNE 12 19 30.51 1033 10 16.0934 0 0
12:56 pm 12:56 Cloudy 33 0.6 24 -4.4 70 70 N 8 13 30.52 1034 10 16.0934 0.03 0.762
1:56 pm 13:56 Cloudy 33 0.6 25 -3.9 72 72 NNE 9 15 30.52 1034 10 16.0934 0 0
2:56 pm 14:56 Cloudy 34 1.1 25 -3.9 70 70 NNE 10 17 30.5 1033 10 16.0934 0 0
3:56 pm 15:56 Cloudy 33 0.6 25 -3.9 72 72 NNE 8 13 30.5 1033 10 16.0934 0 0
4:56 pm 16:56 Cloudy 33 0.6 25 -3.9 72 72 N 10 17 30.51 1033 10 16.0934 0 0
5:05 pm 17:05 Cloudy 34 1 25 -4 70 70 N 9 15 30.52 1034 10 16.0934 0 0
5:52 pm 17:52 Cloudy 34 1 25 -4 70 70 N 12 19 30.53 1034 10 16.0934 0 0
5:56 pm 17:56 Cloudy 33 0.6 25 -3.9 72 72 N 14 22 30.52 1033 10 16.0934 0 0
6:56 pm 18:56 Cloudy with Light Wintry Mix 32 0 26 -3.3 79 79 NE 12 19 30.52 1034 10 16.0934 0.001 0.001
7:56 pm 19:56 Cloudy 31 -0.6 25 -3.9 79 79 NNE 9 15 30.55 1034 10 16.0934 0.001 0.001
8:56 pm 20:56 Cloudy 30 -1.1 25 -3.9 82 82 NNE 10 17 30.56 1035 10 16.0934 0.54 13.716
9:56 pm 21:56 Cloudy 30 -1.1 23 -5 75 75 NNE 7 11 30.58 1035 10 16.0934 1.13 28.702
10:56 pm 22:56 Cloudy 29 -1.7 24 -4.4 82 82 N 9 15 30.57 1035 10 16.0934 1.41 35.814
11:45 pm 23:45 Cloudy 28 -2 23 -5 80 80 NNE 8 13 30.58 1036 10 16.0934 1.52 38.608
11:56 pm 23:56 Cloudy 29 -1.7 24 -4.4 82 82 NE 8 13 30.55 1035 10 16.0934 1.79 45.466

Powered by AerisWeather